| time (UTC) | temp F | wind direction | speed MPH | gust MPH | rain 1hr in | rain 24hr in | rain mn in | humidity % | barometer mb |
| 20260901045429 | 76 | 23 | 1.0 | 2.0 | 0.00 | 0.00 | 0.00 | 82 | 1021.1 |
| 20260901044427 | 76 | 315 | 2.0 | 4.0 | 0.00 | 0.00 | 0.00 | 82 | 1021.5 |
| 20260901043424 | 76 | 0.0 | 2.0 | 0.00 | 0.00 | 0.00 | 83 | 1021.3 | |
| 20260901042420 | 76 | 0 | 1.0 | 2.0 | 0.00 | 0.00 | 0.00 | 83 | 1021.6 |
| 20260901041417 | 76 | 293 | 2.0 | 2.0 | 0.00 | 0.00 | 0.00 | 84 | 1021.6 |
| 20260901040515 | 76 | 343 | 2.0 | 4.0 | 0.00 | 0.00 | 0.00 | 84 | 1021.4 |
| 20260901035512 | 76 | 45 | 0.0 | 2.0 | 0.00 | 0.00 | 0.00 | 84 | 1021.2 |
| 20260901034507 | 76 | 0.0 | 2.0 | 0.00 | 0.00 | 0.00 | 85 | 1021.1 | |
| 20260901033504 | 76 | 0.0 | 0.0 | 0.00 | 0.00 | 0.00 | 85 | 1021.6 | |
| 20260901032522 | 76 | 0.0 | 0.0 | 0.00 | 0.00 | 0.00 | 85 | 1021.5 | |
| 20260901031538 | 76 | 0.0 | 2.0 | 0.00 | 0.00 | 0.00 | 85 | 1021.8 | |
| 20260901030454 | 76 | 0 | 1.0 | 2.0 | 0.00 | 0.00 | 0.00 | 86 | 1021.6 |
| 20260901025451 | 76 | 0.0 | 2.0 | 0.00 | 0.00 | 0.00 | 86 | 1021.6 | |
| 20260901024449 | 76 | 23 | 0.0 | 2.0 | 0.00 | 0.00 | 0.00 | 86 | 1021.7 |
| 20260901023606 | 76 | 0.0 | 0.0 | 0.00 | 0.00 | 0.00 | 86 | 1021.7 | |
| 20260901022441 | 76 | 38 | 1.0 | 2.0 | 0.00 | 0.00 | 0.00 | 86 | 1021.8 |
| 20260901021438 | 76 | 0.0 | 2.0 | 0.00 | 0.00 | 0.00 | 86 | 1021.8 | |
| 20260901020434 | 76 | 0 | 0.0 | 2.0 | 0.00 | 0.00 | 0.00 | 86 | 1021.9 |
| 20260901015451 | 76 | 0 | 0.0 | 2.0 | 0.00 | 0.00 | 0.00 | 86 | 1022.0 |
| 20260901014428 | 76 | 0 | 2.0 | 4.0 | 0.00 | 0.00 | 0.00 | 85 | 1022.0 |
| 20260901013425 | 77 | 45 | 0.0 | 2.0 | 0.00 | 0.00 | 0.00 | 86 | 1022.1 |
| 20260901012421 | 77 | 0.0 | 2.0 | 0.00 | 0.00 | 0.00 | 85 | 1022.1 | |
| 20260901011418 | 77 | 23 | 0.0 | 2.0 | 0.00 | 0.00 | 0.00 | 85 | 1022.4 |
| 20260901010435 | 77 | 0 | 1.0 | 4.0 | 0.00 | 0.00 | 0.00 | 85 | 1022.4 |
| 20260901005512 | 77 | 45 | 1.0 | 4.0 | 0.00 | 0.00 | 0.00 | 85 | 1022.4 |
| 20260901004509 | 77 | 0 | 0.0 | 2.0 | 0.00 | 0.00 | 0.00 | 85 | 1022.5 |
| 20260901003506 | 77 | 0.0 | 2.0 | 0.00 | 0.00 | 0.00 | 85 | 1022.5 | |
| 20260901002504 | 77 | 23 | 1.0 | 2.0 | 0.00 | 0.00 | 0.00 | 85 | 1022.6 |
| 20260901001500 | 77 | 0.0 | 2.0 | 0.00 | 0.00 | 0.00 | 85 | 1022.6 | |
| 20260901000458 | 78 | 23 | 2.0 | 2.0 | 0.00 | 0.00 | 0.00 | 84 | 1022.7 |
| 20260831235454 | 78 | 52 | 1.0 | 2.0 | 0.00 | 0.00 | 0.00 | 84 | 1022.6 |
| 20260831234449 | 78 | 0.0 | 0.0 | 0.00 | 0.00 | 0.00 | 84 | 1022.8 | |
| 20260831233446 | 78 | 90 | 1.0 | 4.0 | 0.00 | 0.00 | 0.00 | 84 | 1022.8 |
| 20260831232505 | 78 | 45 | 0.0 | 2.0 | 0.00 | 0.00 | 0.00 | 84 | 1022.9 |
| 20260831231439 | 78 | 58 | 2.0 | 4.0 | 0.00 | 0.00 | 0.00 | 84 | 1022.6 |
| 20260831230456 | 78 | 0 | 2.0 | 4.0 | 0.00 | 0.00 | 0.00 | 84 | 1022.6 |
| 20260831225514 | 78 | 51 | 2.0 | 4.0 | 0.00 | 0.00 | 0.00 | 84 | 1022.7 |
| 20260831224451 | 78 | 52 | 2.0 | 4.0 | 0.00 | 0.00 | 0.00 | 85 | 1022.7 |
| 20260831223447 | 78 | 64 | 1.0 | 2.0 | 0.00 | 0.00 | 0.00 | 85 | 1022.7 |
| 20260831222424 | 78 | 53 | 1.0 | 4.0 | 0.00 | 0.00 | 0.00 | 85 | 1022.6 |
| 20260831221441 | 78 | 49 | 1.0 | 2.0 | 0.00 | 0.00 | 0.00 | 85 | 1022.6 |
| 20260831220417 | 78 | 23 | 1.0 | 4.0 | 0.00 | 0.00 | 0.00 | 85 | 1022.4 |
| 20260831215513 | 78 | 0.0 | 2.0 | 0.00 | 0.00 | 0.00 | 85 | 1022.4 | |
| 20260831214511 | 78 | 45 | 1.0 | 2.0 | 0.00 | 0.00 | 0.00 | 85 | 1022.3 |
| 20260831213528 | 78 | 23 | 1.0 | 4.0 | 0.00 | 0.00 | 0.00 | 85 | 1022.3 |
| 20260831212525 | 78 | 32 | 2.0 | 4.0 | 0.00 | 0.00 | 0.00 | 85 | 1022.2 |
| 20260831211501 | 78 | 23 | 1.0 | 4.0 | 0.00 | 0.00 | 0.00 | 85 | 1022.2 |
| 20260831210457 | 78 | 39 | 1.0 | 4.0 | 0.00 | 0.00 | 0.00 | 85 | 1022.1 |
| 20260831205454 | 78 | 42 | 2.0 | 4.0 | 0.00 | 0.00 | 0.00 | 85 | 1022.0 |
| 20260831204451 | 79 | 248 | 0.0 | 2.0 | 0.00 | 0.00 | 0.00 | 85 | 1022.1 |
| 20260831203448 | 78 | 45 | 2.0 | 4.0 | 0.00 | 0.00 | 0.00 | 85 | 1021.9 |
| 20260831202444 | 79 | 68 | 2.0 | 8.0 | 0.00 | 0.00 | 0.00 | 85 | 1021.9 |
| 20260831201442 | 78 | 62 | 2.0 | 4.0 | 0.00 | 0.00 | 0.00 | 85 | 1021.7 |
| 20260831200458 | 78 | 68 | 2.0 | 2.0 | 0.00 | 0.00 | 0.00 | 85 | 1021.6 |
| 20260831195455 | 78 | 49 | 1.0 | 4.0 | 0.00 | 0.00 | 0.00 | 85 | 1021.5 |
| 20260831194431 | 78 | 51 | 1.0 | 4.0 | 0.00 | 0.00 | 0.00 | 84 | 1021.4 |
| 20260831193428 | 78 | 27 | 3.0 | 7.0 | 0.00 | 0.00 | 0.00 | 84 | 1021.1 |
| 20260831192425 | 78 | 68 | 1.0 | 2.0 | 0.00 | 0.00 | 0.00 | 84 | 1020.9 |
| 20260831191421 | 78 | 45 | 2.0 | 4.0 | 0.00 | 0.00 | 0.00 | 84 | 1020.8 |
| 20260831190438 | 78 | 23 | 2.0 | 2.0 | 0.00 | 0.00 | 0.00 | 84 | 1020.7 |
| 20260831185415 | 78 | 94 | 1.0 | 4.0 | 0.00 | 0.00 | 0.00 | 84 | 1020.6 |
| 20260831184532 | 78 | 54 | 3.0 | 8.0 | 0.00 | 0.00 | 0.00 | 83 | 1020.5 |
| 20260831183508 | 78 | 50 | 3.0 | 6.0 | 0.00 | 0.00 | 0.00 | 83 | 1020.5 |
| 20260831182507 | 79 | 28 | 3.0 | 4.0 | 0.00 | 0.00 | 0.00 | 82 | 1020.4 |
| 20260831181502 | 79 | 45 | 3.0 | 7.0 | 0.00 | 0.00 | 0.00 | 81 | 1020.4 |
| 20260831180500 | 79 | 105 | 4.0 | 8.0 | 0.00 | 0.00 | 0.00 | 81 | 1020.3 |
| 20260831175455 | 79 | 74 | 3.0 | 9.0 | 0.00 | 0.00 | 0.00 | 81 | 1020.2 |
| 20260831174513 | 79 | 18 | 3.0 | 6.0 | 0.00 | 0.00 | 0.00 | 81 | 1020.3 |
| 20260831173449 | 79 | 32 | 3.0 | 6.0 | 0.00 | 0.00 | 0.00 | 81 | 1020.3 |
| 20260831172446 | 80 | 56 | 2.0 | 6.0 | 0.00 | 0.00 | 0.00 | 80 | 1020.3 |
| 20260831171502 | 80 | 113 | 4.0 | 9.0 | 0.00 | 0.00 | 0.00 | 79 | 1020.2 |
| 20260831170439 | 80 | 81 | 4.0 | 11.0 | 0.00 | 0.00 | 0.00 | 79 | 1020.2 |
| 20260831165456 | 79 | 68 | 6.0 | 14.0 | 0.00 | 0.00 | 0.00 | 79 | 1020.2 |
| 20260831164454 | 79 | 100 | 5.0 | 8.0 | 0.00 | 0.00 | 0.00 | 80 | 1020.3 |
| 20260831163429 | 80 | 105 | 8.0 | 11.0 | 0.00 | 0.00 | 0.00 | 80 | 1020.5 |
| 20260831162427 | 81 | 110 | 5.0 | 9.0 | 0.00 | 0.00 | 0.00 | 79 | 1020.5 |
| 20260831161424 | 80 | 81 | 4.0 | 7.0 | 0.00 | 0.00 | 0.00 | 81 | 1020.5 |
| 20260831160420 | 80 | 77 | 7.0 | 13.0 | 0.00 | 0.00 | 0.00 | 81 | 1020.5 |
| 20260831155417 | 79 | 58 | 6.0 | 11.0 | 0.00 | 0.00 | 0.00 | 81 | 1020.7 |
| 20260831154513 | 80 | 68 | 8.0 | 14.0 | 0.00 | 0.00 | 0.00 | 80 | 1020.7 |
| 20260831153511 | 79 | 82 | 9.0 | 13.0 | 0.00 | 0.00 | 0.00 | 81 | 1020.8 |
| 20260831152506 | 79 | 75 | 9.0 | 15.0 | 0.00 | 0.00 | 0.00 | 81 | 1020.9 |
| 20260831151503 | 80 | 78 | 11.0 | 20.0 | 0.00 | 0.00 | 0.00 | 80 | 1020.8 |
| 20260831150500 | 80 | 68 | 10.0 | 15.0 | 0.00 | 0.00 | 0.00 | 80 | 1020.8 |
| 20260831145457 | 80 | 83 | 12.0 | 17.0 | 0.00 | 0.00 | 0.00 | 81 | 1021.0 |
| 20260831144454 | 81 | 85 | 7.0 | 13.0 | 0.00 | 0.00 | 0.00 | 78 | 1020.9 |
| 20260831143451 | 81 | 84 | 6.0 | 9.0 | 0.00 | 0.00 | 0.00 | 79 | 1020.9 |
| 20260831142447 | 81 | 90 | 8.0 | 13.0 | 0.00 | 0.00 | 0.00 | 79 | 1021.0 |
| 20260831141505 | 82 | 48 | 8.0 | 17.0 | 0.00 | 0.00 | 0.00 | 78 | 1020.9 |
| 20260831140441 | 82 | 83 | 4.0 | 7.0 | 0.00 | 0.00 | 0.00 | 77 | 1020.9 |
| 20260831135437 | 82 | 31 | 6.0 | 11.0 | 0.00 | 0.00 | 0.00 | 77 | 1020.9 |
| 20260831134434 | 82 | 68 | 8.0 | 15.0 | 0.00 | 0.00 | 0.00 | 76 | 1021.0 |
| 20260831133431 | 82 | 90 | 10.0 | 14.0 | 0.00 | 0.00 | 0.00 | 77 | 1021.0 |
| 20260831132429 | 82 | 70 | 6.0 | 16.0 | 0.00 | 0.00 | 0.00 | 77 | 1021.0 |
| 20260831131424 | 81 | 83 | 12.0 | 18.0 | 0.00 | 0.00 | 0.00 | 76 | 1021.0 |
| 20260831130442 | 83 | 64 | 7.0 | 15.0 | 0.00 | 0.00 | 0.00 | 74 | 1021.0 |
| 20260831125418 | 82 | 360 | 8.0 | 17.0 | 0.00 | 0.00 | 0.00 | 74 | 1021.1 |
| 20260831124514 | 83 | 77 | 11.0 | 18.0 | 0.00 | 0.00 | 0.00 | 75 | 1021.3 |
| 20260831123511 | 83 | 63 | 7.0 | 14.0 | 0.00 | 0.00 | 0.00 | 72 | 1021.2 |
| 20260831122508 | 83 | 57 | 8.0 | 17.0 | 0.00 | 0.00 | 0.00 | 72 | 1021.3 |
| 20260831121525 | 83 | 80 | 10.0 | 18.0 | 0.00 | 0.00 | 0.00 | 72 | 1021.3 |
| 20260831120501 | 83 | 53 | 5.0 | 11.0 | 0.00 | 0.00 | 0.00 | 73 | 1021.4 |
| 20260831115458 | 83 | 68 | 7.0 | 13.0 | 0.00 | 0.00 | 0.00 | 72 | 1021.6 |
| 20260831114456 | 83 | 96 | 4.0 | 11.0 | 0.00 | 0.00 | 0.00 | 75 | 1021.6 |
| 20260831113452 | 83 | 74 | 6.0 | 14.0 | 0.00 | 0.00 | 0.00 | 76 | 1021.6 |
| 20260831112450 | 83 | 0 | 5.0 | 11.0 | 0.00 | 0.00 | 0.00 | 72 | 1021.6 |
| 20260831111447 | 83 | 49 | 3.0 | 7.0 | 0.00 | 0.00 | 0.00 | 72 | 1021.5 |
| 20260831110442 | 83 | 90 | 9.0 | 16.0 | 0.00 | 0.00 | 0.00 | 73 | 1021.7 |
| 20260831105439 | 82 | 0 | 4.0 | 7.0 | 0.00 | 0.00 | 0.00 | 77 | 1021.7 |
| 20260831104437 | 83 | 60 | 8.0 | 16.0 | 0.00 | 0.00 | 0.00 | 76 | 1021.9 |
| 20260831103432 | 82 | 83 | 9.0 | 16.0 | 0.00 | 0.00 | 0.00 | 76 | 1021.8 |
| 20260831102429 | 83 | 103 | 5.0 | 13.0 | 0.00 | 0.00 | 0.00 | 75 | 1021.8 |
| 20260831101426 | 82 | 357 | 5.0 | 9.0 | 0.00 | 0.00 | 0.00 | 74 | 1021.7 |
| 20260831100443 | 82 | 69 | 10.0 | 20.0 | 0.00 | 0.00 | 0.00 | 73 | 1021.7 |
| 20260831095420 | 82 | 84 | 8.0 | 11.0 | 0.00 | 0.00 | 0.00 | 73 | 1021.7 |
| 20260831094417 | 82 | 45 | 6.0 | 15.0 | 0.00 | 0.00 | 0.00 | 74 | 1021.5 |
| 20260831093513 | 82 | 84 | 10.0 | 15.0 | 0.00 | 0.00 | 0.00 | 73 | 1021.5 |
| 20260831092530 | 82 | 68 | 5.0 | 11.0 | 0.00 | 0.00 | 0.00 | 73 | 1021.4 |
| 20260831091507 | 82 | 58 | 3.0 | 7.0 | 0.00 | 0.00 | 0.00 | 72 | 1021.3 |
| 20260831090525 | 82 | 45 | 3.0 | 7.0 | 0.00 | 0.00 | 0.00 | 70 | 1021.2 |
| 20260831085500 | 82 | 40 | 5.0 | 8.0 | 0.00 | 0.00 | 0.00 | 71 | 1021.0 |
| 20260831084457 | 82 | 78 | 3.0 | 8.0 | 0.00 | 0.00 | 0.00 | 70 | 1020.9 |
| 20260831083453 | 82 | 51 | 1.0 | 6.0 | 0.00 | 0.00 | 0.00 | 68 | 1020.9 |
| 20260831082510 | 82 | 158 | 1.0 | 2.0 | 0.00 | 0.00 | 0.00 | 67 | 1020.9 |
| 20260831081447 | 80 | 0.0 | 0.0 | 0.00 | 0.00 | 0.00 | 70 | 1020.8 | |
| 20260831080444 | 78 | 225 | 2.0 | 2.0 | 0.00 | 0.00 | 0.00 | 69 | 1020.7 |
| 20260831075440 | 78 | 255 | 1.0 | 2.0 | 0.00 | 0.00 | 0.00 | 68 | 1020.6 |
| 20260831074458 | 76 | 248 | 3.0 | 4.0 | 0.00 | 0.00 | 0.00 | 69 | 1020.5 |
| 20260831073454 | 75 | 270 | 2.0 | 4.0 | 0.00 | 0.00 | 0.00 | 69 | 1020.5 |
| 20260831072430 | 74 | 261 | 3.0 | 4.0 | 0.00 | 0.00 | 0.00 | 69 | 1020.5 |
| 20260831071427 | 74 | 216 | 2.0 | 4.0 | 0.00 | 0.00 | 0.00 | 70 | 1020.4 |
| 20260831070424 | 73 | 248 | 1.0 | 2.0 | 0.00 | 0.00 | 0.00 | 71 | 1020.2 |
| 20260831065420 | 73 | 248 | 2.0 | 4.0 | 0.00 | 0.00 | 0.00 | 71 | 1020.3 |
| 20260831064417 | 72 | 0.0 | 0.0 | 0.00 | 0.00 | 0.00 | 73 | 1020.1 | |
| 20260831063514 | 72 | 248 | 2.0 | 4.0 | 0.00 | 0.00 | 0.00 | 73 | 1019.9 |
| 20260831062512 | 73 | 248 | 0.0 | 2.0 | 0.00 | 0.00 | 0.00 | 74 | 1019.8 |
| 20260831061508 | 73 | 0.0 | 2.0 | 0.00 | 0.00 | 0.00 | 76 | 1019.7 | |
| 20260831060504 | 72 | 0.0 | 0.0 | 0.00 | 0.00 | 0.00 | 78 | 1019.7 | |
| 20260831055501 | 71 | 0.0 | 0.0 | 0.00 | 0.00 | 0.00 | 79 | 1019.6 | |
| 20260831054458 | 71 | 0.0 | 0.0 | 0.00 | 0.00 | 0.00 | 80 | 1019.5 | |
| 20260831053516 | 71 | 0.0 | 0.0 | 0.00 | 0.00 | 0.00 | 81 | 1019.4 | |
| 20260831052511 | 71 | 0.0 | 0.0 | 0.00 | 0.00 | 0.00 | 81 | 1019.3 | |
| 20260831051448 | 71 | 0.0 | 0.0 | 0.00 | 0.00 | 0.00 | 81 | 1019.3 | |
| 20260831050445 | 71 | 0.0 | 0.0 | 0.00 | 0.00 | 0.00 | 82 | 1019.1 |